Theta_e
309 309 309 310 310 310 310 310 311 311 312 312 313 309 305 305 305 302 299 305 300 296 297 298 299 296 297 298 294 301 299 300 294 290 290 289 288 290 287 286 283 282 281 283 285 285 283 290 288 284 289 292 295 297
308 308 308 308 309 309 309 309 310 310 310 311 312 310 306 305 305 304 296 304 305 297 296 302 302 303 302 301 299 298 297 298 296 291 292 291 287 289 288 283 290 285 285 282 284 285 289 289 287 290 297 292 295 295
305 306 306 307 308 308 308 309 309 310 310 311 312 310 307 305 305 304 299 300 300 295 296 300 301 306 308 306 307 296 302 304 302 302 295 294 287 288 286 287 286 288 289 285 285 287 287 288 289 294 297 295 295 296
303 304 304 305 306 307 308 308 309 310 310 310 311 309 306 305 305 304 299 301 300 297 289 298 306 303 307 308 307 306 305 305 302 303 296 292 289 293 288 289 286 288 288 285 286 287 286 289 288 292 295 296 296 296
303 303 303 304 305 306 307 308 308 309 309 310 311 308 305 303 304 304 302 302 303 296 292 295 303 307 308 308 307 307 305 300 299 297 293 293 296 292 291 289 288 288 285 284 285 285 285 285 287 295 294 294 297 295
302 302 302 303 303 305 306 307 308 309 310 311 311 307 304 304 303 299 293 302 302 300 292 290 304 303 305 307 308 307 306 302 301 296 295 300 297 293 288 287 287 288 289 288 286 286 285 288 292 295 293 293 294 294
301 302 302 303 303 303 305 307 308 309 310 310 308 305 304 304 302 294 293 301 302 301 294 292 296 304 305 306 308 305 306 303 301 297 296 298 295 294 290 287 287 290 290 289 291 289 286 290 290 293 293 293 294 293
300 302 303 302 302 303 305 306 308 309 309 308 305 303 304 302 301 296 300 302 303 297 297 292 293 299 306 304 304 309 304 301 300 298 299 296 297 294 287 290 290 291 290 291 290 292 292 293 293 293 294 293 291 290
299 300 302 304 304 304 305 306 308 308 307 304 303 303 301 298 295 298 304 304 303 298 292 295 293 294 305 303 306 305 305 297 303 296 298 296 297 290 291 291 290 291 290 290 291 292 292 291 291 292 292 291 289 289
298 299 301 303 304 305 305 306 308 307 304 303 300 295 292 299 305 305 299 293 294 295 295 291 299 295 301 303 302 303 301 299 293 297 300 295 296 296 294 295 293 292 292 291 291 290 290 289 290 290 291 291 291 290
298 298 299 302 304 304 305 306 307 304 301 297 293 295 305 306 303 299 293 290 291 290 296 297 299 296 303 297 298 304 299 296 290 294 294 294 294 295 296 294 294 294 294 293 293 293 293 292 290 290 290 290 290 290
298 298 298 301 303 304 305 306 304 300 297 297 298 301 300 299 296 292 291 295 294 292 298 297 299 300 303 306 300 301 297 297 289 301 293 291 296 296 294 293 294 294 294 293 293 293 293 292 292 290 290 290 290 291
298 298 298 301 303 303 305 306 303 302 302 301 296 293 293 292 287 286 287 291 291 298 300 301 300 303 304 303 300 299 293 293 302 293 293 297 297 295 295 294 293 295 295 294 293 293 293 292 293 292 290 291 292 292
298 298 298 300 302 303 304 305 303 302 300 292 289 285 289 289 292 294 295 293 298 301 303 303 301 300 303 298 300 292 298 300 290 288 291 298 298 296 296 296 294 293 294 294 293 293 293 292 291 292 293 293 293 292
299 298 298 300 302 303 304 305 303 301 295 289 289 286 289 296 299 299 298 297 300 303 303 300 302 301 299 295 298 295 292 289 293 294 298 300 299 299 296 296 295 295 295 294 295 294 294 294 293 294 295 295 295 294
298 297 299 301 302 303 304 303 297 297 293 289 289 288 296 294 294 294 294 297 301 303 305 302 298 295 294 297 292 290 290 289 297 301 302 301 299 299 299 299 298 298 297 297 296 295 295 295 295 294 295 295 295 294
297 294 300 302 303 304 302 295 294 290 289 288 289 295 296 295 294 296 298 299 305 302 298 300 293 292 299 294 292 297 295 300 303 303 304 302 301 300 301 300 299 299 298 296 296 296 295 295 295 294 292 293 295 295
296 299 300 300 301 298 295 294 290 288 286 290 291 293 294 296 295 298 300 303 302 302 301 298 302 294 293 289 295 301 303 305 306 306 304 303 302 302 301 301 300 299 298 298 297 297 296 295 294 294 295 295 295 295
298 300 300 301 298 294 290 291 292 287 290 294 295 294 294 295 297 299 302 305 306 307 305 301 296 295 296 300 299 302 304 305 305 304 304 304 304 302 301 300 300 300 299 299 298 296 296 296 295 295 295 295 295 296
298 299 299 300 299 291 289 289 294 290 290 294 294 293 294 293 296 298 299 301 303 303 299 297 298 300 301 304 306 305 307 308 305 302 301 302 304 303 301 300 299 300 298 298 298 294 295 295 295 295 296 296 295 295
297 298 299 299 293 293 292 291 291 292 295 293 296 296 294 296 296 297 298 302 300 299 298 302 303 305 307 308 309 310 308 307 305 307 303 300 303 303 301 300 300 299 298 297 296 295 293 294 295 295 294 294 296 296
297 299 292 294 289 290 290 293 293 296 295 294 295 296 294 293 294 297 303 299 297 299 302 303 303 305 305 305 306 308 309 309 309 305 298 299 301 301 300 299 298 297 297 297 297 295 296 296 295 294 294 294 293 294
297 295 292 291 288 288 289 295 290 292 289 292 295 291 291 294 297 303 296 298 299 303 305 305 306 307 306 307 308 308 309 308 306 306 304 304 303 303 301 300 300 298 297 297 298 297 296 292 293 293 294 294 294 294
297 291 288 288 289 286 292 289 291 291 292 289 289 289 291 294 300 297 294 297 302 305 305 306 306 305 306 306 305 306 308 309 308 307 307 304 302 302 302 301 301 301 301 299 298 298 297 296 293 295 295 295 295 295
287 287 288 285 290 288 287 287 288 288 287 289 288 288 291 298 293 292 292 296 300 302 304 306 305 305 303 304 306 307 310 308 307 305 307 307 305 304 303 303 302 302 302 299 298 297 297 297 297 297 296 296 296 296
284 287 286 287 287 287 287 285 286 287 288 287 289 294 296 294 289 289 296 301 303 305 305 305 304 303 304 306 305 306 307 310 309 306 307 308 306 304 302 301 300 300 303 301 299 298 297 298 297 297 297 296 290 296
283 285 289 294 292 291 289 291 292 290 288 287 291 291 291 287 288 295 304 306 307 308 310 309 307 306 306 306 308 309 309 310 309 310 312 310 309 308 304 302 302 304 303 302 301 300 299 299 299 299 298 299 299 298
289 289 286 289 289 291 289 290 289 288 291 295 294 289 288 289 292 301 305 307 306 305 308 309 310 309 309 308 308 308 308 310 311 311 312 312 311 310 309 307 308 293 303 304 303 302 302 302 301 301 301 301 302 302
289 292 291 288 289 290 291 291 292 297 300 297 293 292 294 301 304 305 307 307 309 309 307 305 306 309 308 309 309 309 307 307 304 302 301 302 302 306 310 309 305 307 307 305 290 295 302 302 303 303 304 304 304 304
289 295 290 289 288 288 293 298 297 300 302 301 302 301 302 304 306 310 308 307 305 307 308 307 307 307 305 305 306 306 308 309 309 306 303 303 305 309 310 307 304 308 308 307 305 303 286 299 296 303 302 303 303 302
295 294 290 291 290 293 296 299 301 300 301 301 302 300 300 304 306 309 306 307 305 309 308 306 306 307 306 305 305 304 304 307 308 307 308 309 309 310 310 308 305 308 308 307 305 304 303 302 304 304 304 303 302 299
294 290 290 287 290 296 298 296 296 296 298 299 299 301 301 298 296 303 306 305 307 307 300 304 306 306 308 308 308 307 291 308 308 309 307 309 309 308 309 306 304 306 307 307 307 306 305 304 305 305 304 303 303 303
292 293 292 291 291 290 295 294 293 294 296 296 295 294 295 295 292 298 305 307 307 307 307 308 308 308 308 307 308 306 299 309 300 289 290 291 293 298 305 306 305 305 304 306 306 306 305 305 306 305 304 303 303 299
Wind_Speed
13 13 14 16 16 16 17 17 17 16 15 13 14 14 11 9 6 5 2 5 5 6 12 11 8 12 10 9 7 12 10 5 3 7 5 6 5 6 5 3 7 5 7 5 6 5 4 23 15 8 9 11 10 9
14 14 14 17 17 17 17 18 18 17 15 14 14 15 13 10 9 6 3 5 5 5 9 16 20 21 20 18 11 5 5 7 2 3 4 4 4 4 7 5 2 2 5 6 5 5 9 13 12 16 8 3 5 8
16 16 17 15 17 17 17 18 18 17 16 15 13 15 14 12 11 9 3 4 4 5 8 8 5 7 9 15 13 5 2 4 3 4 3 3 4 3 4 4 7 3 4 4 9 4 13 11 14 18 11 10 11 12
17 17 16 16 17 17 17 18 18 18 17 15 13 15 15 12 9 9 5 4 4 5 5 4 2 8 6 9 13 17 14 8 7 5 3 4 3 2 4 6 4 5 9 8 4 6 14 6 16 15 11 11 15 15
17 17 18 18 18 18 17 17 18 17 16 15 11 15 14 12 10 6 5 5 8 4 5 9 19 1 5 8 12 12 13 7 5 3 4 3 2 3 4 3 0 3 4 6 4 7 5 9 15 11 11 9 10 18
16 17 18 19 19 18 18 17 18 16 15 13 13 16 15 12 8 2 3 5 7 5 4 6 7 7 4 6 7 8 7 6 6 2 6 1 3 5 4 3 2 1 2 4 4 6 4 10 11 9 11 12 12 15
17 17 17 19 20 19 18 18 17 15 13 6 16 15 12 12 5 4 1 3 8 5 3 6 5 3 3 6 4 4 5 3 4 3 4 4 1 4 3 3 3 4 4 5 5 3 3 8 6 9 14 14 15 16
18 18 19 20 20 20 18 18 17 14 9 14 14 11 9 6 4 6 6 10 9 3 3 5 6 5 4 4 4 3 3 3 5 4 3 4 2 2 3 2 2 2 1 4 6 5 5 7 10 10 12 12 16 15
18 19 19 20 19 18 18 16 16 11 15 16 12 8 3 4 4 2 2 14 7 2 3 5 4 3 2 4 1 2 2 4 2 4 2 3 1 1 2 6 0 1 2 3 4 5 8 9 10 10 13 14 16 13
18 19 20 19 19 18 17 16 18 15 17 15 3 3 4 5 8 15 3 4 4 4 5 5 6 7 5 3 2 2 2 2 3 1 0 4 2 2 4 3 4 3 2 2 0 4 5 6 9 10 11 11 12 12
19 19 20 20 19 18 16 15 10 17 10 1 4 4 2 10 4 3 4 5 5 5 6 6 10 8 6 6 5 0 1 2 2 1 4 2 2 2 6 5 6 4 3 3 5 6 7 7 7 9 10 10 12 12
19 20 19 20 19 18 15 13 21 5 4 3 1 2 2 4 4 5 5 5 7 5 7 6 6 7 3 3 4 4 2 1 3 1 3 2 3 6 5 4 7 5 7 8 6 8 9 9 9 9 9 10 10 11
19 19 20 20 19 18 16 12 22 9 8 2 1 3 4 3 6 6 8 5 4 5 5 7 7 5 5 5 4 3 5 4 2 3 3 2 7 7 6 6 6 8 6 11 10 9 11 10 9 10 10 10 10 11
20 19 20 20 19 17 15 11 19 9 2 3 4 5 6 6 7 8 6 3 6 4 4 6 5 5 2 5 2 5 2 2 2 3 2 5 9 12 7 10 8 8 9 11 10 9 10 11 9 10 10 11 11 12
20 20 21 21 20 18 15 14 18 2 2 4 4 7 9 8 3 1 2 6 7 4 4 4 3 4 4 3 3 2 4 5 2 2 4 7 11 12 11 10 10 10 9 10 10 10 12 12 10 11 11 11 11 11
18 19 16 19 20 18 11 16 4 1 0 3 6 6 7 4 6 5 7 8 7 6 3 5 3 4 4 3 4 6 3 2 1 3 5 10 12 12 12 11 10 10 8 10 10 10 9 10 11 11 11 11 12 11
16 7 9 11 16 11 23 5 3 6 5 5 7 8 9 2 5 6 7 7 6 8 8 4 6 4 3 4 4 3 2 2 2 4 4 10 13 13 13 12 12 13 12 10 10 11 10 10 11 10 11 10 10 10
14 12 16 16 13 8 2 2 4 5 8 8 6 6 4 7 6 6 6 6 6 9 8 4 2 6 3 3 2 2 1 2 2 2 4 10 12 12 11 13 12 12 11 11 10 10 10 10 11 9 11 11 11 10
13 10 10 19 8 5 4 5 3 5 9 5 7 3 3 8 9 11 4 4 4 4 3 3 5 4 4 3 3 2 1 2 2 4 5 11 12 12 12 11 10 11 10 11 11 8 8 10 8 8 9 10 9 9
19 19 16 23 10 4 5 4 4 5 5 5 5 6 8 8 8 8 8 7 6 4 5 5 5 3 2 1 1 2 2 3 5 5 7 9 10 12 11 10 8 10 9 10 9 8 8 7 7 8 8 10 9 9
11 8 14 11 2 4 3 4 7 4 4 5 6 10 4 5 6 6 7 7 8 5 5 5 4 4 3 1 1 1 4 4 3 2 6 10 11 10 9 8 9 8 8 8 8 8 8 7 7 7 7 7 6 7
3 13 4 2 2 5 3 3 3 3 4 3 4 6 6 9 8 8 6 7 7 7 6 7 6 5 5 5 5 6 3 6 3 3 3 10 11 11 10 9 9 9 8 8 8 8 7 7 8 7 9 9 8 8
9 4 4 4 4 5 3 4 4 4 4 4 4 4 4 4 4 6 5 8 7 8 8 7 6 5 6 4 5 6 7 7 5 5 6 8 9 10 10 10 9 9 8 8 7 8 8 9 8 9 9 10 9 9
7 3 5 6 6 6 4 4 4 4 3 4 4 4 6 4 5 5 6 6 6 6 7 7 6 6 5 6 6 7 7 5 4 4 6 8 9 10 10 9 9 8 8 9 8 8 9 10 10 10 11 11 10 10
4 4 4 4 4 6 6 6 5 3 5 7 6 4 4 4 5 5 5 6 5 6 5 5 6 6 6 6 6 5 6 6 5 5 6 7 9 9 9 9 9 8 8 10 10 11 11 11 10 11 12 11 12 12
2 4 6 7 5 4 4 5 7 7 5 5 6 3 3 3 4 4 2 2 1 2 4 5 6 6 5 4 6 6 6 4 4 5 6 7 8 10 11 11 10 9 9 10 12 14 14 12 12 14 12 13 9 11
3 4 4 3 2 3 4 3 4 5 6 5 5 6 5 5 5 3 4 4 1 2 2 3 4 5 5 6 4 5 5 5 4 1 4 6 7 8 9 11 14 11 12 12 13 14 14 14 13 13 12 11 12 14
2 1 5 6 4 4 4 5 5 5 3 3 3 6 4 2 3 4 4 4 3 3 3 3 4 4 4 6 7 7 6 6 6 4 4 2 4 5 7 9 8 10 8 11 12 13 13 12 12 11 11 10 10 11
2 3 4 6 3 3 1 1 2 2 1 2 3 3 3 3 3 1 3 3 2 1 2 5 5 5 6 6 6 5 6 5 5 5 6 4 5 6 7 6 9 10 12 12 7 5 14 11 10 8 7 6 6 7
4 1 3 4 3 2 3 3 4 4 4 3 1 2 4 3 3 1 2 4 4 3 3 5 7 8 8 8 7 6 4 3 1 1 2 2 4 6 8 8 8 10 12 11 12 11 5 7 4 5 6 6 6 7
0 1 2 2 2 4 4 3 2 2 2 2 3 3 3 2 2 2 4 5 2 4 5 7 5 6 6 6 6 6 6 4 3 2 2 2 2 5 9 8 0 5 10 11 12 12 12 11 10 11 11 11 11 9
2 1 2 4 4 2 1 1 2 2 2 1 2 2 1 2 1 2 5 5 3 5 1 3 7 5 5 5 5 5 4 4 4 3 2 2 3 4 8 7 5 5 9 11 10 11 12 13 11 10 9 11 11 11
2 2 1 1 2 4 2 2 2 2 1 1 3 3 2 2 2 3 3 4 4 3 4 4 6 7 7 6 5 5 1 6 8 8 9 8 8 8 6 5 3 1 2 6 8 8 11 13 9 7 6 3 3 4
Wind_Direction
297 300 304 301 301 299 298 296 296 291 282 275 238 215 204 225 214 212 297 203 245 266 288 264 249 269 275 256 281 330 318 35 308 342 347 355 308 359 299 279 335 323 328 1 325 332 353 359 344 3 310 294 313 25
311 305 310 310 307 306 300 294 293 291 284 274 248 211 200 204 218 195 254 182 227 246 276 307 278 269 260 264 294 304 289 322 327 312 360 304 306 311 317 322 344 340 8 316 332 341 340 322 305 299 335 98 38 67
319 321 321 316 312 310 308 302 295 292 287 278 250 206 196 197 205 203 236 280 225 268 274 247 253 223 222 234 232 246 223 318 299 350 314 283 293 333 322 20 299 133 35 277 318 65 334 320 333 343 69 70 73 74
318 319 323 321 317 313 313 309 304 296 289 280 246 194 188 191 202 211 216 240 248 294 283 287 203 245 276 223 217 224 268 304 309 282 278 308 296 198 315 317 295 14 308 327 261 345 325 337 346 342 73 81 86 78
316 319 321 321 320 319 316 318 312 304 296 287 225 182 175 185 212 220 235 238 246 262 302 302 301 326 157 203 226 229 238 260 279 277 269 301 312 289 246 276 176 5 352 337 351 330 298 298 322 2 63 65 83 101
315 318 320 321 318 315 319 317 313 311 304 295 186 169 179 192 163 197 252 193 212 199 278 290 359 278 212 226 236 216 213 223 247 291 275 323 87 282 306 308 73 292 270 264 287 304 282 295 339 39 67 65 62 85
312 313 316 320 319 315 310 311 312 308 306 264 166 166 187 175 167 209 305 56 163 147 247 273 272 168 252 250 202 210 184 234 263 267 253 304 150 252 298 283 75 326 351 314 324 311 308 7 24 52 73 71 73 75
311 310 312 315 316 314 308 308 310 306 293 154 150 156 159 176 261 267 230 195 163 202 242 271 277 263 156 237 209 210 213 213 205 269 243 265 128 234 256 323 316 291 313 26 10 24 67 53 58 68 84 87 75 78
309 308 309 311 312 310 308 308 307 304 142 137 138 137 153 203 217 229 137 174 179 278 268 238 262 311 166 249 294 183 188 241 83 266 253 279 341 229 277 314 346 340 9 48 37 36 73 77 74 80 92 91 91 86
304 303 306 307 310 310 312 310 308 162 142 136 129 182 226 211 147 132 155 141 183 216 224 252 266 254 305 264 232 147 231 293 265 44 244 252 263 51 163 82 88 113 126 129 22 80 66 79 82 78 78 94 96 96
302 300 302 306 307 308 306 303 158 128 113 155 203 240 58 136 172 196 194 191 184 228 212 230 237 231 195 262 327 72 322 213 264 158 289 242 274 102 127 122 133 134 145 77 90 91 89 93 98 99 96 94 100 99
301 300 298 301 304 305 301 303 165 147 173 176 253 305 246 207 202 221 201 198 215 243 182 213 206 210 212 232 256 176 272 198 261 270 270 267 72 111 124 134 150 137 123 116 116 116 106 100 106 108 109 109 107 105
292 298 293 298 298 299 294 306 181 140 132 162 220 255 232 189 218 214 199 188 221 201 191 186 185 202 177 222 242 254 240 203 176 242 247 345 118 130 125 125 118 135 121 102 108 103 110 106 107 116 115 111 113 114
286 293 289 292 292 293 284 286 172 154 118 185 199 224 226 194 230 205 213 168 232 258 191 199 170 215 170 197 251 252 76 224 232 235 285 86 150 137 143 134 152 135 126 116 114 116 117 117 116 115 117 125 124 122
280 289 286 282 280 277 270 199 164 115 158 198 222 231 218 248 288 292 237 257 254 249 185 205 214 234 178 233 207 309 230 241 261 20 20 105 144 148 148 141 138 133 123 113 120 123 124 128 129 130 133 134 133 141
278 293 266 264 264 259 245 151 77 84 181 233 227 249 239 258 253 239 252 246 219 219 222 243 188 202 190 233 207 221 267 268 46 22 72 138 149 154 155 158 152 139 131 133 130 130 132 140 139 135 141 142 148 152
267 250 249 271 297 254 147 105 137 184 221 223 231 227 260 286 252 242 269 254 204 218 213 219 201 164 115 217 223 205 256 32 26 85 117 151 159 160 162 160 155 150 148 144 136 141 138 141 137 148 148 151 153 156
246 256 274 296 134 109 71 99 152 199 233 233 243 227 235 270 273 265 239 239 221 218 211 224 143 200 211 225 212 179 219 81 57 69 139 158 163 158 162 163 160 160 158 157 157 149 148 156 162 164 158 159 161 158
242 248 252 182 144 125 159 178 201 238 229 256 237 236 221 245 229 244 277 231 243 277 207 211 230 223 215 205 280 270 221 250 137 127 143 166 162 158 160 161 163 162 164 163 160 167 159 166 167 165 165 170 168 164
238 246 253 191 158 140 169 181 208 241 242 209 210 216 213 225 226 217 222 219 221 216 205 213 213 190 189 145 268 313 359 127 155 147 154 166 167 168 167 164 165 155 156 154 157 155 155 162 161 176 175 181 172 168
231 220 237 170 145 219 203 192 207 235 248 220 211 212 209 241 233 207 194 190 211 221 219 225 228 208 168 131 245 216 171 202 199 221 159 170 171 173 161 167 157 169 163 167 164 159 174 173 164 167 166 180 182 166
213 142 97 118 140 193 241 228 259 276 233 267 196 206 201 200 209 210 160 202 225 222 234 253 231 205 193 210 211 212 160 180 171 128 166 147 173 176 172 167 170 172 177 173 174 167 177 156 160 165 169 166 177 167
129 110 119 145 192 192 236 178 209 206 234 223 180 199 227 218 192 142 215 221 223 213 225 227 232 208 244 138 176 176 185 186 186 187 162 182 180 173 168 171 175 172 171 172 172 164 159 141 159 162 149 160 165 156
129 115 158 163 195 193 184 188 208 203 226 207 205 211 185 169 155 216 228 209 205 197 198 196 194 192 188 204 205 185 175 197 187 181 175 182 174 174 176 173 177 176 172 159 165 159 150 163 157 167 163 167 170 167
130 150 161 161 192 209 195 169 184 182 216 201 191 207 162 177 201 205 222 218 199 199 205 178 205 213 214 197 183 171 158 194 190 200 185 195 179 169 178 177 173 169 164 163 166 164 163 159 176 173 175 180 183 186
117 164 192 179 160 194 181 164 184 200 186 182 203 173 190 197 218 229 163 52 102 131 181 211 214 208 212 197 171 174 168 194 187 217 176 203 187 188 181 176 170 173 180 174 169 170 171 172 181 183 188 189 192 201
182 170 182 226 209 157 212 207 177 175 178 183 172 172 185 206 208 115 117 59 11 65 322 274 256 225 197 164 130 115 129 155 197 233 153 203 185 186 203 196 191 174 179 180 175 180 179 183 189 193 199 201 201 207
23 99 149 156 197 218 184 157 165 185 150 140 177 189 198 227 84 52 51 37 16 311 285 245 201 205 186 140 139 143 141 128 133 147 128 163 191 192 193 203 134 117 161 182 183 187 191 190 195 198 204 213 206 203
176 147 164 166 191 176 191 94 102 85 19 227 219 152 88 58 70 46 49 351 321 246 149 150 139 122 131 141 138 142 146 162 163 183 216 166 200 209 204 165 166 186 177 200 205 212 194 196 201 204 207 212 209 197
114 240 171 155 166 110 75 12 80 87 56 56 360 165 137 128 90 92 340 2 357 14 104 135 156 166 156 158 149 151 163 169 70 354 318 297 215 178 179 172 186 191 183 194 182 177 103 162 144 187 202 197 194 192
60 203 138 128 85 74 73 88 86 57 32 53 22 32 66 68 129 83 26 351 328 245 183 165 151 150 161 156 161 178 169 170 160 141 358 351 300 180 169 160 336 207 180 188 183 182 183 200 205 209 198 203 196 202
142 144 164 153 126 92 169 156 144 182 174 154 65 36 53 23 4 54 22 332 216 171 84 196 158 148 123 103 92 84 351 75 121 142 135 344 11 128 143 129 133 213 189 179 180 189 195 201 205 206 215 216 217 209
135 145 134 141 166 173 170 229 221 180 160 78 58 347 36 341 48 6 348 360 339 56 120 103 101 107 106 99 89 93 89 80 70 77 84 78 99 116 124 113 108 155 181 183 181 186 194 200 200 201 201 208 237 244